Location: *
(45.9500°N, 9.0833°E)
Time: 20:22:38
(UTC+00:00)

Vanguard 2 Rocket - Pass Details

Date: 19 June 2021
Orbit: 555 x 3325 km, 32.9° (Epoch: 30 July)

Event Time Altitude Azimuth Distance (km) Brightness Sun altitude
Rises 15:22:20 0° 186° (S) 6,974 11.5 37.7°
Reaches altitude 10° 15:29:49 10° 168° (SSE) 6,205 11.2 36.4°
Maximum altitude 15:40:09 17° 137° (SE) 5,679 10.7 34.6°
Drops below altitude 10° 15:50:02 10° 105° (ESE) 5,971 10.6 32.9°
Sets 15:56:47 0° 88° (E) 6,615 10.8 31.7°
